User: anonymous   Login
Location: Wildcat Hills Observatory
(41.6350°N, 103.6812°W)
Time: 18:07:54
(UTC-07:00)
Language:

Cosmos 1634 Rocket - Orbit

View from above orbital plane
View from above orbital plane
View from above satellite
View from above satellite

Ground track
Ground track

The orbit data is extracted from the following two-line orbital elements,

1 15598U 85022B   14326.89598365  .00000148  00000-0  13565-3 0  7785
2 15598 082.9383 083.7615 0022034 207.3003 287.4189 13.76497682491511
Epoch (UTC): 22 November 2014 21:30:12
Eccentricity: 0.0022034
inclination: 82.9383°
perigee height: 960 km
apogee height: 992 km
right ascension of ascending node: 83.7615°
argument of perigee: 207.3003°
revolutions per day: 13.76497682
mean anomaly at epoch: 287.4189°
orbit number at epoch: 49151

The dashed part of the orbit path shows where the satellite is in the earth's shadow,  

DLR